Hourly Data Report for June 28, 2012

All times are specified in Local Standard Time (LST). Add 1 hour to adjust for Daylight Saving Time where and when it is observed.

SAINT JOHN A
NEW BRUNSWICK

45°18'58.000" N
65°53'24.000" W
108.80 m
8104901
71609
YSJ

Download Data

Hourly Data (June 2012)
Hourly Data Report for June 28, 2012
Temp Definition
°C
Dew Point Temp Definition
°C
Rel Hum Definition
%
Wind Dir Definition
10's deg

Wind Spd Definition
km/h
Visibility Definition
km
Stn Press Definition
kPa
Hmdx Definition


Wind Chill Definition


Weather Definition


TIME
00:00 Legend Double Dagger 13.4 13.3 99 19 21 4.8 98.93     Rain Showers,Fog
01:00 Legend Double Dagger 13.4 13.3 99 20 22 4.8 98.92     Rain Showers,Fog
02:00 Legend Double Dagger 13.2 13.1 99 19 23 9.7 98.92     Fog
03:00 Legend Double Dagger 12.6 12.6 100 21 20 4.8 98.93     Fog
04:00 Legend Double Dagger 12.4 12.4 100 20 15 1.2 98.92     Fog
05:00 Legend Double Dagger 12.5 12.5 100 20 11 0.8 98.97     Fog
06:00 Legend Double Dagger 12.1 12.1 100 20 12 0.2 99.00     Fog
07:00 Legend Double Dagger 12.6 12.6 100 20 10 0.4 99.03     Fog
08:00 Legend Double Dagger 13.4 13.4 100 20 12 1.2 99.07     Fog
09:00 Legend Double Dagger 16.2 14.9 92 20 14 10.0 99.07     LegendNANA
10:00 Legend Double Dagger 17.0 14.3 84 26 18 10.0 99.09     LegendNANA
11:00 Legend Double Dagger 19.3 15.2 77 28 11 10.0 99.06     Mostly Cloudy
12:00 Legend Double Dagger 18.0 14.9 82 20 24 10.0 99.09     LegendNANA
13:00 Legend Double Dagger 18.9 14.8 77 20 27 10.0 99.07     LegendNANA
14:00 Legend Double Dagger 18.8 14.7 77 21 20 10.0 99.05     Mostly Cloudy
15:00 Legend Double Dagger 19.4 14.7 74 21 26 10.0 99.05     LegendNANA
16:00 Legend Double Dagger 16.7 15.2 91 28 7 9.7 99.11     Rain Showers,Fog
17:00 Legend Double Dagger 15.4 14.6 95 18 15 10.0 99.09     Mostly Cloudy
18:00 Legend Double Dagger 16.8 15.3 91 22 17 10.0 99.08     LegendNANA
19:00 Legend Double Dagger 17.1 15.0 87 22 12 10.0 99.11     LegendNANA
20:00 Legend Double Dagger 14.9 13.8 93 23 9 10.0 99.15     Mostly Cloudy
21:00 Legend Double Dagger 13.9 13.3 96 20 11 10.0 99.15     LegendNANA
22:00 Legend Double Dagger 13.5 13.2 98   0 10.0 99.15     LegendNANA
23:00 Legend Double Dagger 13.2 13.1 99 20 9 10.0 99.17     Mostly Cloudy

Notes on Data Quality.

Legend

  • E = Estimated
  • M = Missing
  • NA = Not Available
  • ‡ = Partner data that is not subject to review by the National Climate Archives
Date modified: